Regional Weather Roundup
Issued by NWS Bismarck, ND

Home | Current Version | Previous Version | Text Only | Print | Product List | Glossary On
Versions: 1 2 3 4 5 6 7 8 9 10 11 12 13 14 15 16 17 18 19 20 21 22 23 24 25 26 27 28 29 30 31 32 33 34 35 36 37 38 39 40 41 42 43 44 45 46 47 48 49 50
000
ASUS43 KBIS 042010
RWRBIS

NWR BROADCAST TEXT
NATIONAL WEATHER SERVICE BISMARCK ND
300 PM CDT SAT JUL 04 2015

NOTE: "FAIR" INDICATES FEW OR NO CLOUDS BELOW 12,000 FEET WITH NO
SIGNIFICANT WEATHER AND/OR OBSTRUCTIONS TO VISIBILITY.


CITY           SKY/WX    TMP DP  RH WIND       PRES   REMARKS
WILLISTON      SUNNY     95  56  26 S8        29.68F HX  93
MINOT          SUNNY     87  65  47 S16G23    29.71F
MINOT AFB      SUNNY     89  70  51 S15       29.69F HX  94
BISMARCK       SUNNY     87  67  51 S14       29.76F HX  90
DICKINSON      SUNNY     88  65  46 SW7       29.76F HX  90
GARRISON         N/A     86  69  56 S12       29.74F HX  90
HETTINGER ARPT SUNNY     88  64  44 S5        29.80S
JAMESTOWN      SUNNY     85  64  49 S13       29.79F
BEACH          FAIR      90  59  35 SE8       29.77F
CROSBY         FAIR      82  73  74 CALM      29.69F
HARVEY         FAIR      86  63  45 S13G20    29.76S
HAZEN            N/A     86  66  51 S12G17    29.75F
LINTON         FAIR      86  72  62 S14       29.78S HX  92
MANDAN         FAIR      84  72  65 S7        29.78F
OAKES            N/A     82  73  74 S10       29.82S
STANLEY        FAIR      86  70  58 S15       29.73F HX  90
$$

CITY           SKY/WX    TMP DP  RH WIND       PRES   REMARKS
GRAND FORKS    MOSUNNY   85  67  54 S15G21    29.78F HAZE
GRAND FORKS AF SUNNY     84  68  58 S13G24    29.78F
DEVILS LAKE    SUNNY     88  63  42 SW15      29.75F
FARGO          MOSUNNY   84  67  56 S13       29.82F HAZE
CANDO          FAIR      86  66  51 S20       29.75F
CAVALIER       FAIR      84  68  58 S17G23    29.74F HAZE
GRAFTON        FAIR      86  68  54 S16       29.77F HAZE
GWINNER        FAIR      86  64  48 S13       29.83F
LANGDON        FAIR      86  68  54 S15G23    29.77F
ROLLA            N/A     82  68  61 SW17G24   29.76F
WALHALLA       FAIR      84  68  58 MISG      29.73F HAZE
$$

CITY           SKY/WX    TMP DP  RH WIND       PRES   REMARKS
ABERDEEN       SUNNY     86  68  54 S13       29.82S
MOBRIDGE       MOSUNNY   88  69  53 S15       29.76F HX  92
BUFFALO          N/A     91  56  30 W9        29.75F
RAPID CITY       N/A     88  67  49 SE7       29.84S HX  91
GLASGOW        SUNNY     94  52  24 N12G21    29.69S HX  91
SIDNEY         SUNNY     90  55  31 SE9       29.68F
WOLF POINT     MOSUNNY   97  57  26 N9        29.65F HX  96
GLENDIVE       SUNNY     99  48  18 S14G21    29.72F HX  95
MILES CITY     SUNNY     99  51  19 W15G22    29.72F HX  96
BAKER          SUNNY     92  50  23 SW8       29.79F
$$

CITY           SKY/WX    TMP DP  RH WIND       PRES   REMARKS
BILLINGS       MOSUNNY   97  36  12 NW14G20   29.82F HX  92
GREAT FALLS    SUNNY     84  52  33 N10       29.89F
REGINA         PTSUNNY   70  63  78 E2        29.78F
$$




USA.gov is the U.S. government's official web portal to all federal, state and local government web resources and services.